Weather History for Farmington, MO

Change the Weather History Date:

Sunday, January 20, 2013

  Actual Average Record
Temperature  
Mean Temperature 35 °F -  
Max Temperature 46 °F 39 °F 64 °F (1997)
Min Temperature 24 °F 22 °F 3 °F (2008)
Degree Days  
Heating Degree Days 30    
Moisture  
Dew Point 18 °F    
Average Humidity 51    
Maximum Humidity 70    
Minimum Humidity 31    
Precipitation  
Precipitation 0.00 in - - ()
Sea Level Pressure  
Sea Level Pressure 30.25 in    
Wind  
Wind Speed 7 mph (North)    
Max Wind Speed 10 mph    
Max Gust Speed 17 mph    
Visibility 10 miles    
Events      
Averages and records for this station are not official NWS values.
T = Trace of Precipitation, MM = Missing Value Source: NWS Daily Summary

Daily Weather History Graph

Daily Weather History Graph

Search for Another Location

Airport:

Trip Planner

Search our weather history database for the weather conditions in past years. The results will help you decide how hot, cold, wet, or windy it might be!

Date:

Astronomy

Jan. 20, 2013 Rise Set
Actual Time 7:13 AM CST 5:12 PM CST
Civil Twilight 6:45 AM CST 5:40 PM CST
Nautical Twilight 6:13 AM CST 6:12 PM CST
Astronomical Twilight 5:42 AM CST 6:44 PM CST
Moon 12:13 PM CST (1/20) 1:46 AM CST (1/20)
Length of Visible Light 10h 55m
Length of Day
9h 58m
Waxing Gibbous, 66% of the Moon is Illuminated
Jan 20
Waxing Gibbous
Jan 26
Full
Feb 3
Last Quarter
Feb 10
New
Feb 17
First Quarter

Hourly Weather History & Observations

Time (CST) Temp. Windchill Dew Point Humidity Pressure Visibility Wind Dir Wind Speed Gust Speed Precip Events Conditions
12:15 AM 46.4 °F 42.4 °F 30.2 °F 53% 30.16 in 10.0 mi NW 8.1 mph - N/A   Clear
12:35 AM 46.4 °F 41.5 °F 30.2 °F 53% 30.17 in 10.0 mi NW 10.4 mph - N/A   Clear
12:55 AM 46.4 °F 42.4 °F 30.2 °F 53% 30.17 in 10.0 mi NW 8.1 mph - N/A   Clear
1:15 AM 46.4 °F 41.5 °F 28.4 °F 50% 30.18 in 10.0 mi NW 10.4 mph - N/A   Clear
1:35 AM 44.6 °F 40.2 °F 28.4 °F 53% 30.19 in 10.0 mi NW 8.1 mph - N/A   Clear
1:55 AM 42.8 °F 38.0 °F 28.4 °F 57% 30.19 in 10.0 mi NW 8.1 mph - N/A   Clear
2:15 AM 42.8 °F 38.0 °F 28.4 °F 57% 30.19 in 10.0 mi NW 8.1 mph - N/A   Clear
2:35 AM 42.8 °F 38.0 °F 26.6 °F 53% 30.20 in 10.0 mi NW 8.1 mph - N/A   Clear
2:55 AM 42.8 °F 37.0 °F 26.6 °F 53% 30.21 in 10.0 mi NW 10.4 mph - N/A   Clear
3:15 AM 42.8 °F 38.6 °F 26.6 °F 53% 30.21 in 10.0 mi NNW 6.9 mph - N/A   Clear
3:35 AM 41.0 °F 35.2 °F 26.6 °F 57% 30.22 in 10.0 mi NNW 9.2 mph - N/A   Clear
3:55 AM 39.2 °F 33.6 °F 26.6 °F 61% 30.22 in 10.0 mi NNW 8.1 mph - N/A   Clear
4:15 AM 39.2 °F 34.2 °F 26.6 °F 61% 30.23 in 10.0 mi NNW 6.9 mph - N/A   Clear
4:35 AM 37.4 °F 32.8 °F 26.6 °F 65% 30.22 in 10.0 mi NNW 5.8 mph - N/A   Clear
4:55 AM 37.4 °F 32.1 °F 26.6 °F 65% 30.23 in 10.0 mi NNW 6.9 mph - N/A   Clear
5:15 AM 35.6 °F 29.9 °F 26.6 °F 70% 30.23 in 10.0 mi NNW 6.9 mph - N/A   Clear
5:35 AM 37.4 °F 30.8 °F 26.6 °F 65% 30.24 in 10.0 mi NNW 9.2 mph 17.3 mph N/A   Clear
5:55 AM 35.6 °F 30.7 °F 24.8 °F 65% 30.25 in 10.0 mi NNW 5.8 mph - N/A   Clear
6:15 AM 35.6 °F 29.9 °F 23.0 °F 60% 30.26 in 10.0 mi NNW 6.9 mph - N/A   Clear
6:35 AM 33.8 °F 28.6 °F 21.2 °F 60% 30.26 in 10.0 mi NNW 5.8 mph - N/A   Clear
6:55 AM 33.8 °F 27.0 °F 19.4 °F 56% 30.26 in 10.0 mi NNW 8.1 mph - N/A   Clear
7:15 AM 33.8 °F 28.6 °F 17.6 °F 52% 30.27 in 10.0 mi NNW 5.8 mph - N/A   Clear
7:35 AM 30.2 °F 22.6 °F 17.6 °F 60% 30.29 in 10.0 mi NNW 8.1 mph - N/A   Clear
7:55 AM 32.0 °F 25.6 °F 15.8 °F 51% 30.29 in 10.0 mi North 6.9 mph - N/A   Clear
8:15 AM 32.0 °F 25.6 °F 15.8 °F 51% 30.30 in 10.0 mi North 6.9 mph - N/A   Clear
8:35 AM 32.0 °F 24.2 °F 19.4 °F 60% 30.31 in 10.0 mi NNE 9.2 mph - N/A   Clear
8:55 AM 33.8 °F 27.0 °F 21.2 °F 60% 30.31 in 10.0 mi North 8.1 mph - N/A   Clear
9:15 AM 33.8 °F 26.4 °F 21.2 °F 60% 30.31 in 10.0 mi North 9.2 mph - N/A   Clear
9:35 AM 33.8 °F 27.0 °F 21.2 °F 60% 30.31 in 10.0 mi North 8.1 mph - N/A   Clear
9:55 AM 33.8 °F 27.0 °F 19.4 °F 56% 30.32 in 10.0 mi North 8.1 mph - N/A   Clear
10:15 AM 33.8 °F 27.0 °F 14.0 °F 44% 30.31 in 10.0 mi NNE 8.1 mph - N/A   Clear
10:35 AM 35.6 °F 29.9 °F 19.4 °F 52% 30.31 in 10.0 mi NNE 6.9 mph - N/A   Clear
10:55 AM 35.6 °F 29.2 °F 21.2 °F 56% 30.30 in 10.0 mi NE 8.1 mph - N/A   Clear
11:15 AM 35.6 °F - 17.6 °F 48% 30.31 in 10.0 mi Calm Calm - N/A   Clear
11:35 AM 37.4 °F 32.1 °F 15.8 °F 41% 30.29 in 10.0 mi East 6.9 mph - N/A   Clear
11:55 AM 37.4 °F 32.1 °F 15.8 °F 41% 30.29 in 10.0 mi NE 6.9 mph - N/A   Clear
12:15 PM 37.4 °F 34.9 °F 17.6 °F 45% 30.27 in 10.0 mi East 3.5 mph - N/A   Clear
12:35 PM 37.4 °F - 15.8 °F 41% 30.27 in 10.0 mi Calm Calm - N/A   Clear
12:55 PM 37.4 °F - 19.4 °F 48% 30.26 in 10.0 mi Calm Calm - N/A   Clear
1:15 PM 39.2 °F 37.0 °F 15.8 °F 39% 30.24 in 10.0 mi SSW 3.5 mph - N/A   Clear
1:35 PM 39.2 °F 35.0 °F 15.8 °F 39% 30.25 in 10.0 mi SSE 5.8 mph - N/A   Clear
1:55 PM 39.2 °F 35.9 °F 15.8 °F 39% 30.25 in 10.0 mi NE 4.6 mph - N/A   Clear
2:15 PM 39.2 °F 35.9 °F 15.8 °F 39% 30.26 in 10.0 mi NNW 4.6 mph - N/A   Clear
2:35 PM 41.0 °F 37.1 °F 15.8 °F 36% 30.26 in 10.0 mi NE 5.8 mph - N/A   Clear
2:55 PM 41.0 °F - 12.2 °F 31% 30.25 in 10.0 mi Calm Calm - N/A   Clear
3:15 PM 41.0 °F 38.0 °F 12.2 °F 31% 30.25 in 10.0 mi NNE 4.6 mph - N/A   Clear
3:35 PM 41.0 °F 37.1 °F 12.2 °F 31% 30.24 in 10.0 mi ENE 5.8 mph - N/A   Clear
3:55 PM 41.0 °F 38.0 °F 12.2 °F 31% 30.24 in 10.0 mi NE 4.6 mph - N/A   Clear
4:15 PM 41.0 °F 37.1 °F 12.2 °F 31% 30.25 in 10.0 mi ENE 5.8 mph - N/A   Clear
4:35 PM 37.4 °F 30.8 °F 12.2 °F 36% 30.25 in 10.0 mi NE 9.2 mph - N/A   Clear
4:55 PM 37.4 °F 31.4 °F 12.2 °F 36% 30.25 in 10.0 mi NE 8.1 mph - N/A   Clear
5:15 PM 35.6 °F 28.6 °F 12.2 °F 38% 30.25 in 10.0 mi NE 9.2 mph - N/A   Clear
5:35 PM 33.8 °F 27.0 °F 10.4 °F 38% 30.25 in 10.0 mi NE 8.1 mph - N/A   Clear
5:55 PM 33.8 °F 27.7 °F 10.4 °F 38% 30.25 in 10.0 mi NE 6.9 mph - N/A   Clear
6:15 PM 32.0 °F 25.6 °F 10.4 °F 41% 30.25 in 10.0 mi NE 6.9 mph - N/A   Clear
6:35 PM 30.2 °F 23.4 °F 10.4 °F 44% 30.25 in 10.0 mi NE 6.9 mph - N/A   Clear
6:55 PM 30.2 °F 21.9 °F 12.2 °F 47% 30.25 in 10.0 mi NNE 9.2 mph - N/A   Clear
7:15 PM 30.2 °F 23.4 °F 12.2 °F 47% 30.25 in 10.0 mi NNE 6.9 mph - N/A   Clear
7:35 PM 28.4 °F 22.2 °F 12.2 °F 51% 30.25 in 10.0 mi NNE 5.8 mph - N/A   Clear
7:55 PM 28.4 °F 22.2 °F 12.2 °F 51% 30.25 in 10.0 mi NNE 5.8 mph - N/A   Clear
8:15 PM 28.4 °F 21.2 °F 10.4 °F 47% 30.25 in 10.0 mi NNE 6.9 mph - N/A   Clear
8:35 PM 26.6 °F 17.5 °F 12.2 °F 55% 30.25 in 10.0 mi NNE 9.2 mph - N/A   Clear
8:55 PM 26.6 °F 20.0 °F 12.2 °F 55% 30.26 in 10.0 mi NNE 5.8 mph - N/A   Clear
9:15 PM 26.6 °F 20.0 °F 12.2 °F 55% 30.27 in 10.0 mi North 5.8 mph - N/A   Clear
9:35 PM 26.6 °F 21.2 °F 12.2 °F 55% 30.27 in 10.0 mi North 4.6 mph - N/A   Clear
9:55 PM 26.6 °F 21.2 °F 12.2 °F 55% 30.27 in 10.0 mi North 4.6 mph - N/A   Clear
10:15 PM 24.8 °F 20.5 °F 12.2 °F 59% 30.27 in 10.0 mi North 3.5 mph - N/A   Clear
10:35 PM 24.8 °F 20.5 °F 12.2 °F 59% 30.28 in 10.0 mi NNW 3.5 mph - N/A   Clear
10:55 PM 24.8 °F 20.5 °F 12.2 °F 59% 30.28 in 10.0 mi NNW 3.5 mph - N/A   Clear
11:15 PM 24.8 °F - 12.2 °F 59% 30.28 in 10.0 mi Calm Calm - N/A   Mostly Cloudy
11:35 PM 24.8 °F - 12.2 °F 59% 30.28 in 10.0 mi Calm Calm - N/A   Scattered Clouds
11:55 PM 24.8 °F 20.5 °F 12.2 °F 59% 30.27 in 10.0 mi NNW 3.5 mph - N/A   Clear